{"data":{"norad_id":53501,"epoch":"2026-09-20T01:57:13.509504Z","epoch_age_seconds":114348,"freshness":"FRESH","line1":"1 53501U 22099AN  26263.08140636  .00000221  00000+0  84039-5 0  9996","line2":"2 53501  97.4899  30.3605 0000183  47.1171 313.0088 15.36968766225810","mean_motion":15.36968766,"eccentricity":1.83e-5,"inclination_deg":97.4899,"raan_deg":30.3605,"arg_perigee_deg":47.1171,"mean_anomaly_deg":313.0088,"bstar":8.4039e-6,"rev_number":22581,"period_min":93.690908485254,"perigee_km":454.95391408684,"apogee_km":455.20400979105,"semimajor_km":6833.2159619389,"source":"CELESTRAK","updated_at":"2026-09-21T09:00:32.896007Z"}}